This is the latest recevied weather packets stored in our database for station/object AK4NG. If no packets are shown the sender has not sent any weather packets the latest 10 day(s).
| Time | Temp. | Humidity | Pressure | Rain* | Wind** | Luminosity | Snow |
|---|---|---|---|---|---|---|---|
| 1777787497 | 10.56° C | 81% | 1019 hPa | 0 mm | - | 0 W/m² | - |
| 1777787192 | 10.56° C | 81% | 1019.1 hPa | 0 mm | - | 0 W/m² | - |
| 1777786889 | 10.56° C | 79% | 1018.9 hPa | 0 mm | - | 0 W/m² | - |
| 1777786587 | 10.56° C | 78% | 1019.1 hPa | 0 mm | - | 0 W/m² | - |
| 1777786286 | 10.56° C | 79% | 1018.8 hPa | 0 mm | - | 0 W/m² | - |
| 1777785982 | 10.56° C | 82% | 1018.9 hPa | 0 mm | - | 0 W/m² | - |
| 1777785678 | 10.56° C | 83% | 1018.8 hPa | 0 mm | - | 0 W/m² | - |
| 1777785373 | 10° C | 81% | 1018.8 hPa | 0 mm | - | 0 W/m² | - |
| 1777785071 | 10° C | 83% | 1018.9 hPa | 0 mm | - | 0 W/m² | - |
| 1777784768 | 10° C | 83% | 1018.9 hPa | 0 mm | - | 0 W/m² | - |
| 1777784465 | 10° C | 85% | 1018.9 hPa | 0 mm | - | 0 W/m² | - |
| 1777784161 | 10° C | 83% | 1018.6 hPa | 0 mm | - | 0 W/m² | - |
| 1777783859 | 10° C | 84% | 1018.8 hPa | 0 mm | - | 0 W/m² | - |
| 1777783555 | 10° C | 85% | 1018.7 hPa | 0 mm | - | 0 W/m² | - |
| 1777783253 | 10.56° C | 84% | 1018.8 hPa | 0 mm | - | 0 W/m² | - |
| 1777782949 | 10.56° C | 84% | 1018.7 hPa | 0 mm | - | 0 W/m² | - |
| 1777782646 | 10.56° C | 82% | 1018.6 hPa | 0 mm | - | 0 W/m² | - |
| 1777782343 | 10.56° C | 81% | 1018.5 hPa | 0 mm | - | 0 W/m² | - |
| 1777782039 | 10.56° C | 83% | 1018.4 hPa | 0 mm | - | 0 W/m² | - |
| 1777781736 | 10.56° C | 82% | 1018.5 hPa | 0 mm | - | 0 W/m² | - |
| 1777781434 | 10.56° C | 81% | 1018.6 hPa | 0 mm | - | 0 W/m² | - |
| 1777781131 | 10.56° C | 82% | 1018.4 hPa | 0 mm | - | 0 W/m² | - |
| 1777780828 | 11.11° C | 81% | 1018.5 hPa | 0 mm | - | 0 W/m² | - |
| 1777780525 | 11.11° C | 80% | 1018.5 hPa | 0 mm | - | 0 W/m² | - |
| 1777780222 | 11.11° C | 78% | 1018.5 hPa | 0 mm | - | 0 W/m² | - |
* Rain latest hour (hover to see other rain measurements)
** Current wind speed in m/s (hover to see current wind gust speed)